Regional Weather Roundup
Issued by NWS Mt. Holly, NJ

Home | Current Version | Previous Version | Text Only | Print | Product List | Glossary On
Versions: 1 2 3 4 5 6 7 8 9 10 11 12 13 14 15 16 17 18 19 20 21 22 23 24 25 26 27 28
000
ASUS41 KPHI 290012
RWRPHI

REGIONAL WEATHER ROUNDUP
NATIONAL WEATHER SERVICE MOUNT HOLLY NJ
800 PM EDT SAT MAY 28 2016

NOTE:  "FAIR" INDICATES FEW OR NO CLOUDS BELOW 12,000 FEET WITH NO
SIGNIFICANT WEATHER AND/OR OBSTRUCTIONS TO VISIBILITY.

 * = STATION DOES NOT REPORT PRECIPITATION (E.G. RAIN, SNOW, ETC.)
        OR FOG.

NJZ015>026-290100-
SOUTHERN NEW JERSEY

CITY           SKY/WX    TMP DP  RH WIND       PRES   REMARKS
POMONA         CLEAR     75  47  36 S8        30.14S
6HR MIN TEMP:  75; 6HR MAX TEMP:  84;

WILDWOOD*      CLEAR    N/A N/A N/A S14       30.15S
MILLVILLE      CLEAR     76  55  48 CALM      30.14R
WRIGHTSTOWN    CLEAR     82  66  59 S9        30.09R
MOUNT HOLLY    CLEAR     82  64  54 VRB3      30.11R
TRENTON        CLEAR     83  66  56 SW8       30.10R
6HR MIN TEMP:  83; 6HR MAX TEMP:  90;


$$
NJZ001>014-290100-
NORTHERN NEW JERSEY

CITY           SKY/WX    TMP DP  RH WIND       PRES   REMARKS
SUSSEX         CLOUDY    75  68  78 SW3       30.10F
ANDOVER*         N/A     75  69  81 SW3       30.11F
MORRISTOWN     MOCLDY    79  70  73 E5        30.09F
NEWARK         PTCLDY    85  66  53 NW7       30.08R
TETERBORO      PTCLDY    83  64  52 CALM      30.07S
CALDWELL       CLOUDY    75  71  87 CALM      30.09R
SOMERVILLE     PTCLDY    83  68  60 NW6       30.08R
ALLAIRE*       CLEAR     81  63  54 S10       30.12S
TOMS RIVER*    CLEAR     79  54  41 S8        30.13S

$$
PAZ043-044-047-054-055-060>062-066>071-290100-
EASTERN PENNSYLVANIA

CITY           SKY/WX    TMP DP  RH WIND       PRES   REMARKS
PHILADELPHIA   PTCLDY    82  64  54 S8        30.12R
6HR MIN TEMP:  82; 6HR MAX TEMP:  90;

NORTH PHILA    CLEAR     85  66  53 S7        30.12R
BLUE BELL*     CLEAR     81  66  61 S8        30.11R
DOYLESTOWN     CLEAR     82  64  54 S5        30.11R
QUAKERTOWN*    CLEAR     82  64  54 SW6       30.12S
PERKASIE*      FAIR      81  64  57 CALM      30.13S
POTTSTOWN      CLEAR     83  62  49 SW5       30.13R
LANCASTER      CLEAR     80  65  59 S10G18    30.11R
COATESVILLE    CLEAR     81  63  54 VRB3      30.15R
READING          N/A    N/A N/A N/A MISG      30.10R
ALLENTOWN      CLEAR     86  65  49 S6        30.10R
6HR MIN TEMP:  86; 6HR MAX TEMP:  92;

MOUNT POCONO   PTCLDY    71  66  84 CALM      30.18R
6HR MIN TEMP:  67; 6HR MAX TEMP:  84; 6HR PCP:  0.53;

HAZLETON       CLEAR     81  66  61 S3        30.18S
LEHIGHTON      FAIR      82  68  61 CALM      30.10S
WILKES BARRE   CLEAR     82  67  60 VRB5      30.11R

$$
DEZALL-MDZ008-012-015-019-020-290100-
DELAWARE AND EASTERN MARYLAND

CITY           SKY/WX    TMP DP  RH WIND       PRES   REMARKS
WILMINGTON     CLEAR     78  66  66 S12       30.12R
6HR MIN TEMP:  78; 6HR MAX TEMP:  87;

DOVER          CLEAR     82  68  61 SW7       30.11S
GEORGETOWN     CLEAR     77  53  43 S7        30.15R
6HR MIN TEMP:  77; 6HR MAX TEMP:  89;

EASTON         CLEAR     81  54  39 S7        30.17S
PATUXENT       CLOUDY    75  58  55 S7        30.13S
OCEAN CITY     CLEAR     68  63  84 SW5       30.17R
WALLOPS ISLAND FAIR      70  63  78 S7        30.17R
CAMBRIDGE      CLEAR     73  57  56 S6        30.14S
SALISBURY      CLEAR     74  55  51 S8        30.15R

$$
PAZ001-021-NYZ056-072-MDZ011-DCZ001-290100-
OTHER NEARBY LOCATIONS

CITY           SKY/WX    TMP DP  RH WIND       PRES   REMARKS
HARRISBURG     PTCLDY    85  68  56 S8        30.09R
STATE COLLEGE  PTCLDY    81  68  65 CALM      30.12R
WILLIAMSPORT   CLEAR     82  72  71 CALM      30.07R
BINGHAMTON     CLEAR     83  60  45 CALM      30.13R
NEW YORK CITY  PTCLDY    82  65  56 CALM      30.11S
BALTIMORE      PTCLDY    78  58  49 S7        30.11R
WASHINGTON DC  MOCLDY    80  66  62 S9        30.12R

$$




USA.gov is the U.S. government's official web portal to all federal, state and local government web resources and services.